BRO-3 (46943 NORAD) Tracking and Keplerian Element Data
This shows tracking and keplerian element data for the satellite.
Feedback or suggestion? Click here.
Element | Value |
Catalog | 46943 |
Name | BRO-3 |
Epoch Orbit | 941 |
Epoch Day | 21.07384662 |
Epoch Year | 2021 |
RAAN | 160.2633 |
Inclination | 97.3638 |
Eccentricity | 0.001412 |
Argument of Perigee | 87.3854 |
Mean Anonmoly | 25.5868 |
Mean Motion | 15.20599683 |
Decay Rate | 1.103E-05 |
L1 | 1 46943U 20085Q 21021.07384662 .00001103 00000-0 53337-4 0 9993 |
L2 | 2 46943 97.3638 160.2633 0014120 87.3854 25.5868 15.20599683 9414 |
Live tracking and technical data element details for BRO-3 (NORAD 46943). BRO-3 can be tracked NOW for your location showing map with azimuth and elevation plus other details from your city location.
Track the satellite on the map from your city or location and see movement details for azimuth, elevation, latitude, longitude, range, height, and movement on the map or in text.
IsCatalogInMostPopularTable: catalog: 46943, numindb: 35
Update: records affected: 1
GetName: 46943 BRO-3
Hit Count: updated at: Fri, 22 Jan 2021 16:11:47 GMT